Regional Weather Roundup
Issued by NWS Upton, NY

Current Version | Previous Version | Graphics & Text | Print | Product List | Glossary Off
Versions: 1 2 3 4 5 6 7 8 9 10 11 12 13 14 15 16 17 18 19 20 21 22 23 24 25 26 27

000
ASUS41 KOKX 111808
RWROKX

REGIONAL WEATHER ROUNDUP
NATIONAL WEATHER SERVICE NEW YORK NY
100 PM EST MON DEC 11 2017

NOTE: "FAIR" INDICATES FEW OR NO CLOUDS BELOW 12,000 FEET WITH NO
SIGNIFICANT WEATHER AND/OR OBSTRUCTIONS TO VISIBILITY.

NYZ071-072-176-178-NJZ106-104-111900-
NEW YORK CITY METRO AREA

CITY           SKY/WX    TMP DP  RH WIND       PRES   REMARKS
Central Park   SUNNY     40  21  46 NW5       30.01F
Bronx Bot Gard   N/A     41  21  45 W6        29.98F
Bronx Lehman C   N/A     39  21  48 W6          N/A  WCI  35
LaGuardia APRT MOSUNNY   41  21  44 W8        29.99F
Queens College   N/A     39  23  52 W7          N/A  WCI  34
Kennedy INTL   MOSUNNY   40  25  55 W10       30.00F WCI  33
Breezy Point     N/A     39 N/A N/A W7G13       N/A  WCI  34
Brooklyn Coll    N/A     39  23  52 W9          N/A  WCI  33
Staten Island    N/A     39  23  52 W9          N/A  WCI  33
Newark/Liberty MOSUNNY   42  21  43 W9        29.99F
Teterboro      SUNNY     40  22  48 SW5       29.98F
$$

NYZ177-179-078>081-111900-
LONG ISLAND NEW YORK

CITY           SKY/WX    TMP DP  RH WIND       PRES   REMARKS
Jones Beach      N/A     39 N/A N/A W9          N/A  WCI  33
Wantagh          N/A     39  25  56 NW8         N/A  WCI  34
Matinecock PT    N/A     39 N/A N/A W9          N/A  WCI  33
Farmingdale    SUNNY     39  23  52 W10       29.99F WCI  32
MacArthur/ISP  MOSUNNY   41  24  51 NW12      29.98F
Shirley        SUNNY     41  25  53 NW9       29.99F
Mt Sinai Harb    N/A    N/A N/A N/A W7          N/A
Westhampton    SUNNY     42  23  46 W12       30.00F
East Hampton   FAIR      39  25  58 W12G18    29.98F WCI  32
Southold         N/A     39  27  60 W8          N/A  WCI  34
Montauk          N/A     41  26  55 W12G18    29.99F
$$

NYZ052-065-067-111900-
HUDSON VALLEY

CITY           SKY/WX    TMP DP  RH WIND       PRES   REMARKS
White Plains   MOSUNNY   37  20  50 NW12      29.96F WCI  29
Larchmont Harb   N/A     37 N/A N/A W7          N/A  WCI  32
Croton On Huds   N/A     39 N/A N/A W8          N/A  WCI  34
Somers           N/A     36  21  55 W3          N/A
Brewster         N/A     36  21  55 NW7         N/A  WCI  30
Newburgh       MOSUNNY   36  23  60 W14       29.98F WCI  27
Montgomery     CLOUDY    36  21  54 NW9       29.95F WCI  29
Otisville        N/A     34  21  60 NW5         N/A  WCI  30
Warwick          N/A     36  21  55 W8          N/A  WCI  29
Suffern          N/A     36  19  51 W6          N/A  WCI  31
Poughkeepsie   MOSUNNY   37  19  48 SW10      29.97F WCI  30
Albany         FLURRIES  33  22  63 NW12      29.98S WCI  24
$$

NJZ001-105-106-008-010-013-015-019>022-104-111900-
NEW JERSEY

CITY           SKY/WX    TMP DP  RH WIND       PRES   REMARKS
Newark/Liberty MOSUNNY   42  21  43 W9        29.99F
Teterboro      SUNNY     40  22  48 SW5       29.98F
Caldwell       MOSUNNY   41  19  41 NW6       29.99F
Somerville     SUNNY     41  23  48 VRB5      29.99F
Linden         FAIR      40  20  44 CALM      29.99F
Perth Amboy      N/A     39 N/A N/A W14         N/A  WCI  31
Sussex         PTSUNNY   38  18  44 W8        29.97F WCI  32
Andover          N/A     37  20  50 NW5       29.97F WCI  33
Trenton        MOSUNNY   41  21  44 NW7       30.00F
Millville      SUNNY     44  25  47 W8        30.03F
Atlantic City  SUNNY     44  23  43 W14G22    30.02F
Wrightstown    SUNNY     41  22  47 W5        29.98F
Toms River     SUNNY     41  23  48 W9        30.01F
Belmar         SUNNY     40  22  48 W13       30.00F WCI  32
$$

PAZ047>061-062-071-111900-
EASTERN PENNSYLVANIA

CITY           SKY/WX    TMP DP  RH WIND       PRES   REMARKS
Philadelphia   MOSUNNY   41  21  44 W14       30.03F
Allentown      PTSUNNY   38  20  48 W12       30.00F WCI  30
Scranton       CLOUDY    34  19  54 NW9       29.95F WCI  27
$$

CTZ002-004>006-009-010-012-RIZ004-006-007-MAZ004-011-015-111900-
SOUTHERN NEW ENGLAND
 IN CT

CITY           SKY/WX    TMP DP  RH WIND       PRES   REMARKS
Bradley INTL   PTSUNNY   36  20  52 W9        29.96F WCI  29
Hartford       MOSUNNY   39  21  48 VRB3      29.97F
Danbury        MOSUNNY   38  20  48 NW5       29.97F WCI  34
Wtrbury/Oxford MOSUNNY   36  21  54 VRB6      29.95F WCI  31
Norwalk Harbor   N/A     37 N/A N/A W8G14       N/A  WCI  31
Bridgeport     SUNNY     41  22  46 W7        29.98F
Meriden        SUNNY     38  20  48 W8        29.97F WCI  32
New Haven      MOSUNNY   40  22  48 W8        29.97F WCI  34
Chester        FAIR      41  19  42 VRB6      29.95F
Groton         SUNNY     41  23  48 VRB5      29.96F
Wilimantic     MOSUNNY   39  22  50 CALM      29.97F

 IN RI

CITY           SKY/WX    TMP DP  RH WIND       PRES   REMARKS
Providence     MOSUNNY   40  24  53 CALM      29.97F
Block Island   MOSUNNY   40  25  55 W15       29.97F WCI  32
Westerly       SUNNY     41  22  46 W7        29.97F
 IN MA

CITY           SKY/WX    TMP DP  RH WIND       PRES   REMARKS
Boston         MOSUNNY   38  22  52 W15       29.95F WCI  29
Worcester      SUNNY     31  16  54 W14G22    29.91F WCI  21
Westfield      MOSUNNY   36  19  50 W9        29.95F WCI  29
Provincetown   SUNNY     40  23  50 NW9       29.95F WCI  34
Nantucket      CLOUDY    37  32  82 NW10      29.96S WCI  30
$$

ANZ330-335-338-340-345-350-353-355-111900-
COASTAL MARINE OBSERVATIONS


STATION/POSITION TIME  SKY/WX   TEMP    WIND        PRES    VSBY  WAVE
                                AIR SEA DIR/SP/G                  HT/PER
                 (UTC)          (F)     (DEG/KT/KT) (MB)    (MI)  (FT/S)
NY HARB ENTRANCE 1650            39 52  290/ 16/ 19 1016.5          3/10
20 S FIRE ISLAND 1650            40 53  290/ 17/ 21 1016.7          4/ 4
GREAT SOUTH BAY  1700            39 45  280/ 10/ 14   N/A
HUDSON CANYON    1650            43 56  300/ 17/ 21 1016.4          6/ 5
KINGS POINT      1748            39 44  320/  7/ 10 1016.4
EXECUTION ROCKS  1730            45     270/  6/ 10   N/A
WESTERN LI SOUND 1649            40     280/ 10/ 16   N/A           1
CENTRAL LI SOUND NOT AVBL
ROBBINS REEF     1748            39     280/  8/ 10 1016.4
$$


>>>>>>>>>>>>>>>>>>>>>>>>>>>> KEY <<<<<<<<<<<<<<<<<<<<<<<<<<<
>                                                          <
>     SKY/WX - Sky Condition/Present Weather               <
>     TMP    - Temperature in Fahrenheit                   <
>     DP     - Dew Point in Fahrenheit                     <
>     RH     - Relative Humidity in Percent                <
>     WIND   - Direction (from) and Speed in MPH           <
>     PRES   - Mean Sea Level Pressure (inches of Hg)      <
>     WCI    - Wind Chill Index                            <
>     VSB    - VISIBILITY IN MILES                         <
>     HX     - HEAT INDEX                                  <
>     TC     - TEMPERATURE IN CELSIUS                      <
>     VRB    - VARIABLE WIND DIRECTION                     <
>                                                          <
>>>>>>>>>>>>>>>>>>>>>>>>>>>> KEY <<<<<<<<<<<<<<<<<<<<<<<<<<<




USA.gov is the U.S. government's official web portal to all federal, state and local government web resources and services.